Bettles, AK

1:22 AM AKST on December 15, 2019 (GMT -0900)
Bettles

Weather History for PABT - November, 2019

Change the Weather History Date:

Tuesday, November 12, 2019

  Actual Average Record
Temperature  
Mean Temperature 6 °F -  
Max Temperature 16 °F 10 °F 39 °F (2014)
Min Temperature -4 °F -2 °F -42 °F (1958)
Degree Days  
Heating Degree Days 59    
Moisture  
Dew Point -4 °F    
Average Humidity 77    
Maximum Humidity 88    
Minimum Humidity 63    
Precipitation  
Precipitation 0.00 in - - ()
Snow  
Snow 0.00 in - - ()
Snow Depth 2.00 in    
Sea Level Pressure  
Sea Level Pressure 30.16 in    
Wind  
Wind Speed 2 mph (NNE)    
Max Wind Speed 5 mph    
Max Gust Speed -    
Visibility 10 miles    
Events      
Averages and records for this station are not official NWS values.
T = Trace of Precipitation, MM = Missing Value Source: NWS Daily Summary

Daily Weather History Graph

Daily Weather History Graph

Search for Another Location

Airport or City:

Astronomy

Nov. 12, 2019 Rise Set
Actual Time 9:52 AM AKST 3:47 PM AKST
Civil Twilight 8:42 AM AKST 4:56 PM AKST
Nautical Twilight 7:34 AM AKST 6:04 PM AKST
Astronomical Twilight 6:32 AM AKST 7:06 PM AKST
Moon 4:31 PM AKST (11/12) 9:34 AM AKST (11/12)
Length of Visible Light 8h 14m
Length of Day
5h 55m
Full, 100% of the Moon is Illuminated
Nov 12
Full
Nov 19
Last Quarter
Nov 26
New
Dec 3
First Quarter
Dec 11
Full

Hourly Weather History & Observations

Time (AKST) Temp. Windchill Dew Point Humidity Pressure Visibility Wind Dir Wind Speed Gust Speed Precip Events Conditions
12:53 AM -0.9 °F -8.9 °F -5.1 °F 83% 30.05 in 10.0 mi SSE 3.5 mph - N/A   Partly Cloudy
1:53 AM -0.9 °F - -5.1 °F 83% 30.05 in 10.0 mi Calm Calm - N/A   Partly Cloudy
2:53 AM -0.9 °F - -5.1 °F 83% 30.05 in 10.0 mi Calm Calm - N/A   Partly Cloudy
3:53 AM -0.9 °F - -6.0 °F 79% 30.06 in 10.0 mi Calm Calm - N/A   Partly Cloudy
4:53 AM -0.9 °F - -6.0 °F 79% 30.07 in 10.0 mi Calm Calm - N/A   Partly Cloudy
5:53 AM -0.9 °F - -5.1 °F 83% 30.07 in 10.0 mi Calm Calm - N/A   Clear
6:53 AM -0.9 °F -8.9 °F -6.0 °F 79% 30.07 in 10.0 mi NNE 3.5 mph - N/A   Clear
7:53 AM -2.9 °F -11.2 °F -8.0 °F 79% 30.09 in 10.0 mi NNE 3.5 mph - N/A   Partly Cloudy
8:53 AM -2.0 °F -10.1 °F -7.1 °F 79% 30.11 in 10.0 mi North 3.5 mph - N/A   Partly Cloudy
9:53 AM -2.9 °F - -7.1 °F 82% 30.13 in 10.0 mi Calm Calm - N/A   Partly Cloudy
10:53 AM -2.0 °F - -7.1 °F 79% 30.14 in 10.0 mi Calm Calm - N/A   Clear
11:53 AM 5.0 °F - -0.9 °F 76% 30.16 in 10.0 mi Calm Calm - N/A   Partly Cloudy
12:53 PM 10.9 °F 4.7 °F 3.0 °F 70% 30.17 in 10.0 mi NNE 3.5 mph - N/A   Partly Cloudy
1:53 PM 12.9 °F 6.9 °F 9.0 °F 84% 30.17 in 10.0 mi North 3.5 mph - N/A   Partly Cloudy
2:53 PM 12.9 °F 5.2 °F 9.0 °F 84% 30.18 in 10.0 mi NE 4.6 mph - N/A   Partly Cloudy
3:53 PM 12.0 °F 5.9 °F 9.0 °F 88% 30.19 in 10.0 mi NNE 3.5 mph - N/A   Clear
5:53 PM 5.0 °F -2.1 °F -4.0 °F 66% 30.22 in 10.0 mi NE 3.5 mph - N/A   Clear
6:53 PM -0.0 °F - -7.1 °F 72% 30.25 in 10.0 mi Calm Calm - N/A   Clear
7:53 PM -2.0 °F -12.2 °F -7.1 °F 79% 30.25 in 10.0 mi NW 4.6 mph - N/A   Clear
8:53 PM -2.0 °F -10.1 °F -8.0 °F 76% 30.27 in 10.0 mi North 3.5 mph - N/A   Clear
9:53 PM -4.0 °F -12.4 °F -9.0 °F 79% 30.28 in 10.0 mi NNE 3.5 mph - N/A   Clear
10:53 PM -4.0 °F -14.6 °F -11.0 °F 72% 30.29 in 10.0 mi Variable 4.6 mph - N/A   Clear
11:53 PM -0.0 °F - -9.9 °F 63% 30.29 in 10.0 mi Calm Calm - N/A   Clear